星链-32860 (STARLINK-32860)

导读 | 星芒AI

STARLINK-32860 是 SpaceX Starlink 项目中的一颗低轨通信卫星,属于第三代星链卫星群。该卫星于2023年发射,旨在为全球用户提供高速互联网服务。它运行在约550公里的近地轨道,采用先进推进系统和激光通信技术,以提升网络性能和减少延迟。STARLINK-32860 的部署有助于扩展 Starlink 的覆盖范围,特别是在偏远和网络基础设施薄弱的地区。

基本信息
目录编号:
62856
目录名称:
STARLINK-32860
国际标识:
2025-022C
轨道中心:
EARTH
卫星名称:
星链-32860
卫星全名:
星链-32860 (STARLINK-32860)
卫星状态:
在轨 (已飞行279 天)
发射日期:
2025-02-01 UTC
国别 :
美国 (US)
星等 :
--
轨道信息
数据来源 国际轨道数据
星历时间: 2025-11-07T14:32:37+0800
16小时前
查看轨道信息
半长轴: 6853.288km
偏心率: 0.0001066
轨道倾角: 53.162°
近地点辐角 80.545°
升交点赤经 338.502°
平近点角 279.567°
近地点: 474.422km
远地点: 475.884km
周期: 94.104分钟
每日圈数: 15.302217
详细信息
固有亮度:
5
最大亮度:
2.5
卫星平台:
Starlink V1.0
覆盖范围:
全球
运营商:
太空探索技术公司
运营商所在国:
美国
制造商(研发单位):
太空探索技术公司
制造商所在国:
美国
使用方式:
暂无
卫星简介
Starlink 计划是 SpaceX 推出的全球卫星互联网项目,通过发射低轨道卫星,为全球尤其是偏远地区提供高速、低延迟的互联网服务。自 2019 年起,Starlink 已部署数千颗卫星,旨在缩小全球数字鸿沟,推动互联网普及。该项目还为军事、航空等行业提供通信支持,带来广泛经济效益。
2D轨道图
3D轨道图
轨道高度分析图
轨道倾角分析图
轨道综合分析图
查看轨道综合分析图